Location: Peebles
(55.6412°N, 3.1714°W)
Time: 17:21:36
(UTC+01:00)

Cosmos 1934 Rocket - Pass Details

Date: 03 February 2022
Orbit: 938 x 999 km, 83.0° (Epoch: 25 May)

Event Time Altitude Azimuth Distance (km) Brightness Sun altitude
Rises 18:48:25 0° 344° (NNW) 3,634 7.1 -16.5°
Reaches altitude 10° 18:51:15 10° 333° (NNW) 2,678 6.6 -16.9°
Maximum altitude 18:56:17 28° 277° (W) 1,690 6.0 -17.6°
Drops below altitude 10° 19:01:18 10° 221° (SW) 2,651 6.9 -18.3°
Sets 19:04:05 0° 210° (SSW) 3,591 7.4 -18.7°
